| time (UTC) | temp F | wind direction | speed knots | gust knots | rain 1hr in | rain 24hr in | rain mn in | humidity % | barometer mb |
| 20260507070016 | 50 | 202 | 0.0 | 2.6 | 0.00 | 0.08 | 0.00 | 87 | 1013.4 |
| 20260507065505 | 49 | 303 | 0.0 | 2.6 | 0.00 | 0.08 | 0.00 | 86 | 1013.4 |
| 20260507065009 | 49 | 259 | 0.0 | 2.6 | 0.00 | 0.08 | 0.00 | 87 | 1013.3 |
| 20260507064523 | 49 | 279 | 0.0 | 3.5 | 0.00 | 0.08 | 0.00 | 87 | 1013.2 |
| 20260507064004 | 49 | 273 | 0.0 | 3.5 | 0.00 | 0.08 | 0.00 | 86 | 1013.2 |
| 20260507063509 | 49 | 286 | 0.0 | 2.6 | 0.00 | 0.08 | 0.00 | 86 | 1013.2 |
| 20260507063023 | 50 | 305 | 0.0 | 3.5 | 0.00 | 0.08 | 0.00 | 84 | 1013.1 |
| 20260507062508 | 50 | 241 | 0.0 | 5.2 | 0.00 | 0.08 | 0.00 | 83 | 1013.1 |
| 20260507062010 | 50 | 264 | 0.9 | 4.3 | 0.00 | 0.08 | 0.00 | 83 | 1013.0 |
| 20260507061522 | 50 | 281 | 0.9 | 4.3 | 0.00 | 0.08 | 0.00 | 85 | 1013.0 |
| 20260507061010 | 50 | 216 | 0.0 | 3.5 | 0.00 | 0.08 | 0.00 | 86 | 1013.0 |
| 20260507060507 | 50 | 273 | 0.0 | 1.7 | 0.00 | 0.08 | 0.00 | 85 | 1012.9 |
| 20260507060014 | 49 | 280 | 0.0 | 1.7 | 0.00 | 0.08 | 0.00 | 87 | 1012.9 |
| 20260507055506 | 49 | 311 | 0.0 | 2.6 | 0.00 | 0.08 | 0.00 | 87 | 1012.8 |
| 20260507055008 | 49 | 230 | 0.0 | 2.6 | 0.00 | 0.08 | 0.00 | 87 | 1012.7 |
| 20260507054516 | 49 | 222 | 0.0 | 2.6 | 0.00 | 0.08 | 0.00 | 86 | 1012.7 |
| 20260507054006 | 49 | 207 | 0.0 | 1.7 | 0.00 | 0.08 | 0.00 | 87 | 1012.6 |
| 20260507053506 | 49 | 237 | 0.0 | 1.7 | 0.00 | 0.08 | 0.00 | 86 | 1012.6 |
| 20260507053022 | 49 | 173 | 0.0 | 0.9 | 0.00 | 0.08 | 0.00 | 85 | 1012.5 |
| 20260507052506 | 49 | 148 | 0.0 | 0.9 | 0.00 | 0.08 | 0.00 | 84 | 1012.5 |
| 20260507052007 | 49 | 232 | 0.0 | 0.0 | 0.00 | 0.08 | 0.00 | 85 | 1012.5 |
| 20260507051526 | 49 | 233 | 0.0 | 0.0 | 0.00 | 0.08 | 0.00 | 85 | 1012.3 |
| 20260507051009 | 49 | 232 | 0.0 | 0.0 | 0.00 | 0.08 | 0.00 | 85 | 1012.3 |
| 20260507050509 | 49 | 232 | 0.0 | 0.0 | 0.00 | 0.08 | 0.00 | 85 | 1012.3 |
| 20260507050030 | 49 | 232 | 0.0 | 0.9 | 0.00 | 0.08 | 0.00 | 85 | 1012.2 |
| 20260507045512 | 49 | 248 | 0.0 | 0.9 | 0.00 | 0.08 | 0.00 | 85 | 1012.1 |
| 20260507045007 | 48 | 247 | 0.0 | 0.0 | 0.00 | 0.08 | 0.00 | 86 | 1012.0 |
| 20260507044517 | 48 | 248 | 0.0 | 0.0 | 0.00 | 0.08 | 0.00 | 86 | 1011.9 |
| 20260507044009 | 48 | 248 | 0.0 | 0.0 | 0.00 | 0.08 | 0.00 | 87 | 1011.8 |
| 20260507043507 | 47 | 248 | 0.0 | 0.0 | 0.00 | 0.08 | 0.00 | 87 | 1011.9 |
| 20260507043025 | 47 | 248 | 0.0 | 0.0 | 0.00 | 0.08 | 0.00 | 88 | 1011.9 |
| 20260507042509 | 47 | 248 | 0.0 | 0.0 | 0.00 | 0.08 | 0.00 | 88 | 1011.8 |
| 20260507042010 | 47 | 248 | 0.0 | 0.0 | 0.00 | 0.08 | 0.00 | 88 | 1011.7 |
| 20260507041528 | 47 | 248 | 0.0 | 0.0 | 0.00 | 0.08 | 0.00 | 87 | 1011.6 |
| 20260507041010 | 47 | 248 | 0.0 | 0.0 | 0.00 | 0.08 | 0.00 | 87 | 1011.6 |
| 20260507040510 | 47 | 248 | 0.0 | 0.0 | 0.00 | 0.08 | 0.00 | 87 | 1011.6 |
| 20260507040030 | 47 | 248 | 0.0 | 0.0 | 0.00 | 0.08 | 0.00 | 86 | 1011.6 |
| 20260507035512 | 47 | 247 | 0.0 | 0.0 | 0.00 | 0.08 | 0.00 | 87 | 1011.6 |
| 20260507035008 | 47 | 248 | 0.0 | 0.9 | 0.00 | 0.08 | 0.00 | 87 | 1011.7 |
| 20260507034523 | 47 | 248 | 0.0 | 0.9 | 0.00 | 0.08 | 0.00 | 87 | 1011.7 |
| 20260507034006 | 47 | 261 | 0.0 | 0.9 | 0.00 | 0.08 | 0.00 | 87 | 1011.6 |
| 20260507033507 | 47 | 236 | 0.0 | 0.9 | 0.00 | 0.08 | 0.00 | 87 | 1011.6 |
| 20260507033021 | 47 | 273 | 0.0 | 1.7 | 0.00 | 0.08 | 0.00 | 88 | 1011.6 |
| 20260507032509 | 47 | 273 | 0.0 | 1.7 | 0.00 | 0.08 | 0.00 | 88 | 1011.6 |
| 20260507032002 | 47 | 269 | 0.0 | 0.0 | 0.00 | 0.08 | 0.00 | 89 | 1011.7 |
| 20260507031504 | 47 | 246 | 0.0 | 0.0 | 0.00 | 0.08 | 0.00 | 89 | 1011.6 |
| 20260507031003 | 47 | 206 | 0.0 | 0.0 | 0.00 | 0.08 | 0.00 | 89 | 1011.7 |
| 20260507030503 | 47 | 203 | 0.0 | 0.0 | 0.00 | 0.08 | 0.00 | 89 | 1011.7 |
| 20260507030008 | 47 | 198 | 0.0 | 0.0 | 0.00 | 0.08 | 0.00 | 89 | 1011.7 |
| 20260507025502 | 47 | 198 | 0.0 | 0.0 | 0.00 | 0.08 | 0.00 | 89 | 1011.6 |
| 20260507025003 | 47 | 193 | 0.0 | 1.7 | 0.00 | 0.08 | 0.00 | 88 | 1011.6 |
| 20260507024513 | 47 | 193 | 0.0 | 1.7 | 0.00 | 0.08 | 0.00 | 87 | 1011.6 |
| 20260507024003 | 47 | 217 | 0.0 | 1.7 | 0.00 | 0.08 | 0.00 | 86 | 1011.5 |
| 20260507023503 | 47 | 221 | 0.0 | 1.7 | 0.00 | 0.08 | 0.00 | 86 | 1011.4 |
| 20260507023007 | 47 | 260 | 0.0 | 1.7 | 0.00 | 0.08 | 0.00 | 85 | 1011.3 |
| 20260507022503 | 48 | 243 | 0.0 | 1.7 | 0.00 | 0.08 | 0.00 | 85 | 1011.3 |
| 20260507022004 | 48 | 272 | 0.0 | 0.9 | 0.00 | 0.08 | 0.00 | 85 | 1011.4 |
| 20260507021509 | 48 | 207 | 0.0 | 1.7 | 0.00 | 0.08 | 0.00 | 84 | 1011.3 |
| 20260507021005 | 48 | 221 | 0.0 | 1.7 | 0.00 | 0.08 | 0.00 | 83 | 1011.3 |
| 20260507020503 | 48 | 242 | 0.0 | 1.7 | 0.00 | 0.08 | 0.00 | 82 | 1011.3 |
| 20260507020004 | 48 | 221 | 0.0 | 1.7 | 0.00 | 0.08 | 0.00 | 82 | 1011.2 |
| 20260507015502 | 48 | 294 | 0.0 | 3.5 | 0.00 | 0.08 | 0.00 | 82 | 1011.1 |
| 20260507015005 | 48 | 265 | 0.9 | 3.5 | 0.00 | 0.08 | 0.00 | 83 | 1011.1 |
| 20260507014508 | 48 | 255 | 0.0 | 2.6 | 0.00 | 0.08 | 0.00 | 82 | 1011.1 |
| 20260507014003 | 48 | 278 | 0.0 | 3.5 | 0.00 | 0.08 | 0.00 | 82 | 1011.0 |
| 20260507013503 | 48 | 272 | 0.0 | 5.2 | 0.00 | 0.08 | 0.00 | 81 | 1011.0 |
| 20260507013006 | 48 | 315 | 0.0 | 7.8 | 0.00 | 0.08 | 0.00 | 81 | 1011.0 |
| 20260507012503 | 49 | 292 | 0.9 | 7.0 | 0.00 | 0.08 | 0.00 | 81 | 1010.9 |
| 20260507012005 | 49 | 277 | 0.0 | 3.5 | 0.00 | 0.08 | 0.00 | 81 | 1010.9 |
| 20260507011512 | 49 | 277 | 0.9 | 4.3 | 0.00 | 0.08 | 0.00 | 81 | 1010.9 |
| 20260507011003 | 49 | 265 | 0.9 | 6.1 | 0.00 | 0.08 | 0.00 | 81 | 1010.9 |
| 20260507010503 | 49 | 303 | 0.9 | 6.1 | 0.00 | 0.08 | 0.00 | 82 | 1010.8 |
| 20260507010008 | 49 | 165 | 0.9 | 5.2 | 0.00 | 0.08 | 0.00 | 82 | 1011.0 |
| 20260507005504 | 49 | 333 | 0.9 | 5.2 | 0.00 | 0.08 | 0.00 | 82 | 1010.8 |
| 20260507005004 | 49 | 261 | 1.7 | 6.1 | 0.00 | 0.08 | 0.00 | 83 | 1010.8 |
| 20260507004509 | 49 | 283 | 0.9 | 5.2 | 0.00 | 0.08 | 0.00 | 82 | 1010.8 |
| 20260507004003 | 49 | 249 | 0.9 | 6.1 | 0.00 | 0.08 | 0.00 | 83 | 1010.7 |
| 20260507003504 | 49 | 296 | 1.7 | 7.8 | 0.00 | 0.08 | 0.00 | 82 | 1010.7 |
| 20260507003008 | 49 | 300 | 0.0 | 7.8 | 0.00 | 0.08 | 0.00 | 82 | 1010.6 |
| 20260507002503 | 49 | 294 | 2.6 | 7.8 | 0.00 | 0.08 | 0.00 | 82 | 1010.6 |
| 20260507002004 | 49 | 298 | 0.9 | 7.0 | 0.00 | 0.08 | 0.00 | 82 | 1010.6 |
| 20260507001533 | 49 | 341 | 0.9 | 5.2 | 0.00 | 0.08 | 0.00 | 82 | 1010.6 |
| 20260507001003 | 49 | 298 | 0.9 | 5.2 | 0.00 | 0.08 | 0.00 | 83 | 1010.6 |
| 20260507000505 | 49 | 338 | 0.9 | 11.3 | 0.00 | 0.08 | 0.00 | 82 | 1010.6 |
| 20260507000014 | 49 | 336 | 2.6 | 11.3 | 0.00 | 0.08 | 0.00 | 83 | 1010.8 |
| 20260506235504 | 49 | 339 | 0.0 | 6.1 | 0.00 | 0.08 | 0.00 | 84 | 1010.8 |
| 20260506235003 | 49 | 266 | 0.0 | 3.5 | 0.00 | 0.08 | 0.00 | 83 | 1010.8 |
| 20260506234510 | 49 | 173 | 0.9 | 3.5 | 0.00 | 0.08 | 0.00 | 82 | 1010.8 |
| 20260506234003 | 49 | 149 | 0.0 | 7.0 | 0.00 | 0.08 | 0.00 | 81 | 1010.7 |
| 20260506233504 | 49 | 299 | 1.7 | 7.0 | 0.00 | 0.08 | 0.00 | 81 | 1010.7 |
| 20260506233008 | 49 | 296 | 0.0 | 3.5 | 0.00 | 0.08 | 0.00 | 82 | 1010.7 |
| 20260506232502 | 49 | 269 | 0.0 | 3.5 | 0.00 | 0.08 | 0.00 | 82 | 1010.7 |
| 20260506232002 | 49 | 265 | 0.0 | 2.6 | 0.00 | 0.08 | 0.00 | 82 | 1010.8 |
| 20260506231512 | 49 | 282 | 0.0 | 3.5 | 0.00 | 0.08 | 0.00 | 82 | 1010.8 |
| 20260506231004 | 49 | 265 | 0.0 | 3.5 | 0.00 | 0.08 | 0.00 | 82 | 1010.8 |
| 20260506230507 | 49 | 244 | 0.0 | 2.6 | 0.00 | 0.08 | 0.00 | 82 | 1010.7 |
| 20260506230011 | 49 | 303 | 0.0 | 1.7 | 0.00 | 0.08 | 0.00 | 82 | 1010.7 |
| 20260506225504 | 49 | 265 | 0.0 | 7.0 | 0.00 | 0.08 | 0.00 | 82 | 1010.7 |
| 20260506225004 | 49 | 323 | 0.9 | 7.0 | 0.00 | 0.08 | 0.00 | 81 | 1010.7 |
| 20260506224515 | 49 | 258 | 1.7 | 8.7 | 0.00 | 0.08 | 0.00 | 81 | 1010.7 |
| 20260506224003 | 49 | 271 | 2.6 | 8.7 | 0.00 | 0.08 | 0.00 | 82 | 1010.7 |
| 20260506223503 | 49 | 274 | 0.9 | 5.2 | 0.00 | 0.08 | 0.00 | 82 | 1010.7 |
| 20260506223010 | 49 | 235 | 0.9 | 5.2 | 0.00 | 0.08 | 0.00 | 84 | 1010.7 |
| 20260506222505 | 49 | 265 | 0.9 | 5.2 | 0.00 | 0.08 | 0.00 | 84 | 1010.8 |
| 20260506222005 | 49 | 281 | 1.7 | 5.2 | 0.00 | 0.08 | 0.00 | 85 | 1010.7 |
| 20260506221512 | 49 | 292 | 0.9 | 4.3 | 0.00 | 0.09 | 0.00 | 85 | 1010.7 |
| 20260506221004 | 49 | 231 | 0.9 | 4.3 | 0.00 | 0.09 | 0.00 | 86 | 1010.7 |
| 20260506220504 | 49 | 320 | 0.0 | 1.7 | 0.00 | 0.09 | 0.00 | 87 | 1010.7 |
| 20260506220012 | 49 | 261 | 0.0 | 1.7 | 0.00 | 0.09 | 0.00 | 87 | 1010.6 |
| 20260506215504 | 49 | 238 | 0.0 | 1.7 | 0.00 | 0.09 | 0.09 | 86 | 1010.6 |
| 20260506215006 | 49 | 255 | 0.0 | 6.1 | 0.00 | 0.09 | 0.09 | 85 | 1010.7 |
| 20260506214513 | 49 | 287 | 0.9 | 6.1 | 0.00 | 0.09 | 0.09 | 86 | 1010.5 |
| 20260506214004 | 49 | 296 | 0.0 | 2.6 | 0.00 | 0.11 | 0.09 | 87 | 1010.4 |
| 20260506213510 | 49 | 263 | 0.0 | 2.6 | 0.00 | 0.11 | 0.09 | 87 | 1010.2 |
| 20260506213016 | 49 | 304 | 0.0 | 2.6 | 0.00 | 0.11 | 0.09 | 87 | 1010.2 |
| 20260506212505 | 49 | 287 | 0.0 | 3.5 | 0.00 | 0.11 | 0.09 | 86 | 1010.2 |
| 20260506212007 | 49 | 324 | 0.0 | 3.5 | 0.00 | 0.11 | 0.09 | 86 | 1010.3 |
| 20260506211510 | 49 | 327 | 0.0 | 3.5 | 0.00 | 0.11 | 0.09 | 86 | 1010.4 |
| 20260506211004 | 49 | 267 | 0.9 | 4.3 | 0.00 | 0.11 | 0.09 | 86 | 1010.4 |
| 20260506210508 | 49 | 259 | 0.9 | 4.3 | 0.00 | 0.11 | 0.09 | 86 | 1010.4 |
| 20260506210034 | 49 | 266 | 0.0 | 5.2 | 0.00 | 0.12 | 0.09 | 86 | 1010.4 |
| 20260506205504 | 49 | 275 | 0.0 | 5.2 | 0.00 | 0.12 | 0.09 | 85 | 1010.3 |
| 20260506205003 | 49 | 261 | 0.9 | 2.6 | 0.00 | 0.12 | 0.09 | 85 | 1010.3 |
| 20260506204516 | 49 | 277 | 0.0 | 2.6 | 0.00 | 0.12 | 0.09 | 85 | 1010.2 |
| 20260506204007 | 49 | 248 | 0.0 | 2.6 | 0.00 | 0.12 | 0.09 | 85 | 1010.2 |
| 20260506203509 | 49 | 238 | 0.0 | 5.2 | 0.00 | 0.12 | 0.09 | 85 | 1010.1 |
| 20260506203016 | 49 | 261 | 0.0 | 5.2 | 0.00 | 0.12 | 0.09 | 85 | 1010.0 |
| 20260506202504 | 49 | 180 | 0.0 | 2.6 | 0.00 | 0.12 | 0.09 | 84 | 1009.9 |
| 20260506202007 | 49 | 225 | 0.0 | 5.2 | 0.00 | 0.12 | 0.09 | 84 | 1009.8 |
| 20260506201521 | 49 | 271 | 0.9 | 5.2 | 0.00 | 0.12 | 0.09 | 83 | 1009.9 |
| 20260506201004 | 49 | 239 | 0.0 | 2.6 | 0.00 | 0.12 | 0.09 | 83 | 1009.9 |
| 20260506200504 | 49 | 230 | 0.0 | 3.5 | 0.00 | 0.12 | 0.09 | 83 | 1009.9 |
| 20260506200013 | 49 | 229 | 0.9 | 7.0 | 0.00 | 0.12 | 0.09 | 83 | 1009.9 |
| 20260506195504 | 49 | 284 | 0.0 | 7.0 | 0.00 | 0.12 | 0.09 | 83 | 1009.8 |
| 20260506195005 | 49 | 262 | 0.9 | 5.2 | 0.00 | 0.12 | 0.09 | 83 | 1009.7 |
| 20260506194517 | 49 | 236 | 0.0 | 6.1 | 0.00 | 0.12 | 0.09 | 82 | 1009.6 |
| 20260506194007 | 49 | 260 | 1.7 | 6.1 | 0.00 | 0.12 | 0.09 | 82 | 1009.5 |
| 20260506193504 | 50 | 286 | 1.7 | 6.1 | 0.00 | 0.12 | 0.09 | 83 | 1009.4 |
| 20260506193025 | 50 | 338 | 0.9 | 7.0 | 0.00 | 0.12 | 0.09 | 83 | 1009.3 |
| 20260506192504 | 50 | 315 | 1.7 | 7.0 | 0.00 | 0.12 | 0.09 | 83 | 1009.4 |
| 20260506192006 | 50 | 287 | 1.7 | 7.0 | 0.00 | 0.12 | 0.09 | 83 | 1009.4 |
| 20260506191518 | 50 | 249 | 1.7 | 6.1 | 0.00 | 0.12 | 0.09 | 83 | 1009.3 |
| 20260506191006 | 50 | 261 | 1.7 | 8.7 | 0.00 | 0.12 | 0.09 | 83 | 1009.3 |
| 20260506190507 | 50 | 286 | 0.9 | 8.7 | 0.00 | 0.12 | 0.09 | 83 | 1009.2 |
| 20260506190013 | 50 | 301 | 1.7 | 8.7 | 0.00 | 0.12 | 0.09 | 83 | 1009.2 |
| 20260506185507 | 50 | 261 | 1.7 | 7.0 | 0.00 | 0.12 | 0.09 | 83 | 1009.0 |
| 20260506185004 | 50 | 260 | 0.9 | 7.0 | 0.00 | 0.12 | 0.09 | 84 | 1008.8 |
| 20260506184511 | 50 | 308 | 0.0 | 6.1 | 0.00 | 0.12 | 0.09 | 84 | 1008.8 |
| 20260506184005 | 50 | 317 | 0.0 | 4.3 | 0.00 | 0.12 | 0.09 | 85 | 1008.6 |
| 20260506183504 | 50 | 283 | 0.0 | 7.8 | 0.00 | 0.12 | 0.09 | 85 | 1008.6 |
| 20260506183017 | 50 | 278 | 1.7 | 7.8 | 0.00 | 0.12 | 0.09 | 85 | 1008.5 |
| 20260506182508 | 50 | 261 | 0.0 | 6.1 | 0.00 | 0.12 | 0.09 | 85 | 1008.5 |
| 20260506182006 | 50 | 239 | 0.0 | 6.1 | 0.00 | 0.12 | 0.09 | 85 | 1008.4 |
| 20260506181527 | 51 | 286 | 0.9 | 3.5 | 0.00 | 0.12 | 0.09 | 85 | 1008.3 |
| 20260506181006 | 51 | 302 | 0.0 | 7.8 | 0.00 | 0.12 | 0.09 | 85 | 1008.3 |
| 20260506180504 | 51 | 292 | 0.9 | 7.8 | 0.00 | 0.12 | 0.09 | 85 | 1008.2 |
| 20260506180008 | 51 | 257 | 1.7 | 9.6 | 0.00 | 0.12 | 0.09 | 85 | 1008.1 |
| 20260506175502 | 51 | 246 | 1.7 | 9.6 | 0.00 | 0.12 | 0.09 | 84 | 1008.1 |
| 20260506175003 | 52 | 247 | 1.7 | 8.7 | 0.00 | 0.12 | 0.09 | 83 | 1008.1 |
| 20260506174512 | 52 | 311 | 3.5 | 9.6 | 0.00 | 0.12 | 0.09 | 83 | 1008.0 |
| 20260506174003 | 53 | 289 | 3.5 | 9.6 | 0.00 | 0.12 | 0.09 | 87 | 1007.9 |
| 20260506173506 | 53 | 273 | 0.9 | 6.1 | 0.00 | 0.12 | 0.09 | 89 | 1007.5 |
| 20260506173018 | 53 | 325 | 1.7 | 6.1 | 0.00 | 0.12 | 0.09 | 89 | 1007.3 |
| 20260506172504 | 53 | 267 | 0.0 | 5.2 | 0.00 | 0.12 | 0.09 | 89 | 1007.1 |
| 20260506172004 | 53 | 271 | 0.9 | 5.2 | 0.00 | 0.12 | 0.09 | 89 | 1007.0 |
| 20260506171519 | 53 | 286 | 0.0 | 1.7 | 0.00 | 0.12 | 0.09 | 89 | 1006.9 |
| 20260506171008 | 53 | 255 | 0.0 | 1.7 | 0.00 | 0.12 | 0.09 | 89 | 1006.7 |
| 20260506170507 | 53 | 244 | 0.0 | 1.7 | 0.00 | 0.12 | 0.09 | 89 | 1006.5 |
| 20260506170008 | 53 | 298 | 0.0 | 2.6 | 0.00 | 0.12 | 0.09 | 88 | 1006.3 |
| 20260506165504 | 53 | 236 | 0.0 | 2.6 | 0.00 | 0.12 | 0.09 | 88 | 1006.4 |
| 20260506165005 | 53 | 209 | 0.0 | 2.6 | 0.00 | 0.12 | 0.09 | 88 | 1006.3 |
| 20260506164532 | 53 | 241 | 0.0 | 3.5 | 0.00 | 0.12 | 0.09 | 88 | 1006.3 |
| 20260506164003 | 53 | 259 | 0.0 | 3.5 | 0.00 | 0.12 | 0.09 | 88 | 1006.2 |
| 20260506163506 | 53 | 277 | 0.9 | 3.5 | 0.00 | 0.12 | 0.09 | 88 | 1006.0 |
| 20260506163017 | 53 | 263 | 0.9 | 2.6 | 0.00 | 0.12 | 0.09 | 87 | 1006.0 |
| 20260506162508 | 53 | 263 | 0.0 | 2.6 | 0.00 | 0.12 | 0.09 | 87 | 1006.1 |
| 20260506162007 | 53 | 276 | 0.0 | 6.1 | 0.00 | 0.12 | 0.09 | 87 | 1006.0 |
| 20260506161522 | 53 | 263 | 0.0 | 7.0 | 0.00 | 0.12 | 0.09 | 87 | 1006.1 |
| 20260506161008 | 53 | 274 | 0.9 | 7.0 | 0.00 | 0.12 | 0.09 | 86 | 1006.0 |
| 20260506160507 | 53 | 327 | 0.0 | 5.2 | 0.00 | 0.12 | 0.09 | 86 | 1005.6 |
| 20260506160009 | 53 | 336 | 0.9 | 7.0 | 0.00 | 0.12 | 0.09 | 86 | 1005.5 |
| 20260506155503 | 53 | 34 | 0.9 | 7.0 | 0.03 | 0.12 | 0.09 | 86 | 1005.4 |
| 20260506155003 | 53 | 5 | 1.7 | 6.1 | 0.08 | 0.12 | 0.09 | 86 | 1005.4 |
| 20260506154514 | 53 | 86 | 0.0 | 6.1 | 0.08 | 0.12 | 0.09 | 87 | 1005.5 |
| 20260506154004 | 53 | 279 | 1.7 | 7.0 | 0.08 | 0.12 | 0.09 | 87 | 1005.5 |
| 20260506153504 | 53 | 42 | 0.9 | 7.0 | 0.08 | 0.12 | 0.09 | 87 | 1005.6 |
| 20260506153010 | 53 | 324 | 0.0 | 4.3 | 0.08 | 0.12 | 0.09 | 88 | 1006.1 |
| 20260506152503 | 52 | 25 | 0.9 | 3.5 | 0.08 | 0.12 | 0.09 | 87 | 1006.2 |
| 20260506152006 | 52 | 342 | 0.0 | 4.3 | 0.08 | 0.12 | 0.09 | 86 | 1006.2 |
| 20260506151518 | 52 | 275 | 0.0 | 13.0 | 0.08 | 0.12 | 0.09 | 86 | 1006.5 |
| 20260506151009 | 52 | 219 | 0.9 | 13.0 | 0.08 | 0.12 | 0.09 | 84 | 1006.4 |
| 20260506150507 | 52 | 278 | 1.7 | 10.4 | 0.08 | 0.12 | 0.09 | 82 | 1006.4 |
| 20260506150010 | 54 | 219 | 4.3 | 16.5 | 0.08 | 0.12 | 0.09 | 77 | 1005.6 |
| 20260506145505 | 59 | 224 | 6.1 | 16.5 | 0.05 | 0.09 | 0.06 | 64 | 1004.8 |
| 20260506145008 | 65 | 312 | 5.2 | 13.0 | 0.00 | 0.03 | 0.00 | 53 | 1004.5 |
| 20260506144524 | 66 | 254 | 0.0 | 7.0 | 0.00 | 0.03 | 0.00 | 52 | 1003.1 |
| 20260506144008 | 66 | 328 | 0.9 | 7.8 | 0.00 | 0.03 | 0.00 | 51 | 1002.4 |
| 20260506143508 | 67 | 352 | 1.7 | 7.8 | 0.00 | 0.03 | 0.00 | 51 | 1002.6 |
| 20260506143025 | 67 | 21 | 2.6 | 7.8 | 0.00 | 0.03 | 0.00 | 51 | 1002.6 |
| 20260506142505 | 69 | 56 | 0.9 | 7.0 | 0.00 | 0.03 | 0.00 | 50 | 1002.7 |
| 20260506142004 | 69 | 333 | 0.9 | 5.2 | 0.00 | 0.03 | 0.00 | 50 | 1003.2 |
| 20260506141525 | 69 | 306 | 0.9 | 4.3 | 0.00 | 0.03 | 0.00 | 51 | 1003.4 |
| 20260506141007 | 68 | 360 | 1.7 | 4.3 | 0.00 | 0.03 | 0.00 | 50 | 1003.6 |
| 20260506140503 | 68 | 5 | 1.7 | 8.7 | 0.00 | 0.03 | 0.00 | 52 | 1003.6 |
| 20260506140012 | 68 | 5 | 0.9 | 8.7 | 0.00 | 0.03 | 0.00 | 51 | 1003.6 |
| 20260506135503 | 68 | 103 | 0.9 | 8.7 | 0.00 | 0.03 | 0.00 | 50 | 1003.6 |
| 20260506135008 | 70 | 348 | 4.3 | 8.7 | 0.00 | 0.03 | 0.00 | 49 | 1003.6 |
| 20260506134520 | 69 | 360 | 1.7 | 7.8 | 0.00 | 0.03 | 0.00 | 51 | 1003.6 |
| 20260506134009 | 69 | 98 | 2.6 | 7.8 | 0.00 | 0.03 | 0.00 | 51 | 1003.7 |
| 20260506133509 | 68 | 352 | 1.7 | 6.1 | 0.00 | 0.03 | 0.00 | 53 | 1003.9 |
| 20260506133025 | 68 | 352 | 0.0 | 7.0 | 0.00 | 0.03 | 0.00 | 54 | 1003.9 |
| 20260506132506 | 67 | 352 | 0.0 | 7.0 | 0.00 | 0.03 | 0.00 | 55 | 1004.0 |
| 20260506132007 | 67 | 51 | 1.7 | 6.1 | 0.00 | 0.03 | 0.00 | 56 | 1004.1 |
| 20260506131514 | 66 | 51 | 0.9 | 4.3 | 0.00 | 0.03 | 0.00 | 56 | 1004.1 |
| 20260506131004 | 66 | 46 | 0.9 | 4.3 | 0.00 | 0.03 | 0.00 | 56 | 1004.3 |
| 20260506130508 | 66 | 76 | 0.0 | 4.3 | 0.00 | 0.03 | 0.00 | 56 | 1004.3 |
| 20260506130014 | 67 | 84 | 0.9 | 4.3 | 0.00 | 0.03 | 0.00 | 53 | 1004.3 |
| 20260506125509 | 68 | 75 | 0.9 | 8.7 | 0.00 | 0.03 | 0.00 | 53 | 1004.4 |
| 20260506125006 | 67 | 18 | 0.9 | 8.7 | 0.00 | 0.03 | 0.00 | 55 | 1004.4 |
| 20260506124523 | 67 | 62 | 1.7 | 8.7 | 0.00 | 0.03 | 0.00 | 56 | 1004.5 |
| 20260506124007 | 67 | 321 | 1.7 | 8.7 | 0.00 | 0.03 | 0.00 | 54 | 1004.7 |
| 20260506123507 | 67 | 332 | 0.0 | 7.0 | 0.00 | 0.03 | 0.00 | 56 | 1004.8 |
| 20260506123023 | 66 | 49 | 0.9 | 7.0 | 0.00 | 0.03 | 0.00 | 57 | 1004.8 |
| 20260506122508 | 66 | 57 | 1.7 | 6.1 | 0.00 | 0.03 | 0.00 | 55 | 1004.9 |
| 20260506122013 | 67 | 346 | 0.9 | 7.8 | 0.00 | 0.03 | 0.00 | 56 | 1004.8 |
| 20260506121524 | 67 | 135 | 1.7 | 7.8 | 0.00 | 0.03 | 0.00 | 55 | 1004.9 |
| 20260506121008 | 67 | 22 | 1.7 | 6.1 | 0.00 | 0.03 | 0.00 | 55 | 1004.8 |
| 20260506120506 | 68 | 298 | 1.7 | 7.8 | 0.00 | 0.03 | 0.00 | 53 | 1004.9 |
| 20260506120034 | 67 | 66 | 2.6 | 7.8 | 0.00 | 0.03 | 0.00 | 53 | 1005.0 |
| 20260506115505 | 67 | 124 | 1.7 | 7.8 | 0.00 | 0.03 | 0.00 | 54 | 1005.1 |
| 20260506115005 | 68 | 61 | 1.7 | 7.8 | 0.00 | 0.03 | 0.00 | 52 | 1005.1 |
| 20260506114520 | 68 | 13 | 1.7 | 7.0 | 0.00 | 0.03 | 0.00 | 55 | 1005.2 |
| 20260506114012 | 67 | 11 | 1.7 | 7.0 | 0.00 | 0.03 | 0.00 | 54 | 1005.3 |
| 20260506113511 | 67 | 35 | 1.7 | 7.0 | 0.00 | 0.03 | 0.00 | 55 | 1005.4 |
| 20260506113022 | 66 | 63 | 0.9 | 5.2 | 0.00 | 0.03 | 0.00 | 56 | 1005.4 |
| 20260506112506 | 66 | 80 | 0.9 | 4.3 | 0.00 | 0.03 | 0.00 | 58 | 1005.4 |
| 20260506112007 | 64 | 332 | 0.9 | 4.3 | 0.00 | 0.03 | 0.00 | 60 | 1005.4 |
| 20260506111524 | 63 | 9 | 0.9 | 5.2 | 0.00 | 0.03 | 0.00 | 60 | 1005.5 |
| 20260506111006 | 63 | 109 | 0.9 | 5.2 | 0.00 | 0.03 | 0.00 | 60 | 1005.6 |
| 20260506110507 | 63 | 59 | 0.9 | 6.1 | 0.00 | 0.03 | 0.00 | 60 | 1005.5 |
| 20260506110020 | 63 | 91 | 1.7 | 7.0 | 0.00 | 0.03 | 0.00 | 61 | 1005.6 |
| 20260506105506 | 63 | 42 | 0.0 | 7.8 | 0.00 | 0.03 | 0.00 | 62 | 1005.6 |
| 20260506105007 | 63 | 55 | 1.7 | 7.8 | 0.00 | 0.03 | 0.00 | 60 | 1005.7 |
| 20260506104531 | 63 | 55 | 1.7 | 6.1 | 0.00 | 0.03 | 0.00 | 60 | 1005.7 |
| 20260506104011 | 62 | 22 | 1.7 | 5.2 | 0.00 | 0.03 | 0.00 | 59 | 1006.0 |
| 20260506103508 | 62 | 36 | 0.0 | 3.5 | 0.00 | 0.03 | 0.00 | 59 | 1006.2 |
| 20260506103036 | 62 | 24 | 0.9 | 3.5 | 0.00 | 0.03 | 0.00 | 59 | 1006.4 |
| 20260506102511 | 63 | 47 | 0.0 | 3.5 | 0.00 | 0.03 | 0.00 | 56 | 1006.5 |
| 20260506102008 | 63 | 76 | 0.0 | 2.6 | 0.00 | 0.03 | 0.00 | 58 | 1006.6 |
| 20260506101525 | 64 | 37 | 0.0 | 3.5 | 0.00 | 0.03 | 0.00 | 56 | 1006.6 |
| 20260506101004 | 63 | 97 | 0.9 | 3.5 | 0.00 | 0.03 | 0.00 | 56 | 1006.6 |
| 20260506100506 | 64 | 42 | 0.9 | 3.5 | 0.00 | 0.03 | 0.00 | 57 | 1006.6 |
| 20260506100011 | 64 | 327 | 0.9 | 3.5 | 0.00 | 0.03 | 0.00 | 59 | 1006.5 |
| 20260506095502 | 63 | 57 | 0.0 | 3.5 | 0.00 | 0.03 | 0.00 | 58 | 1006.5 |
| 20260506095004 | 64 | 163 | 0.9 | 3.5 | 0.00 | 0.03 | 0.00 | 58 | 1006.5 |
| 20260506094510 | 65 | 122 | 0.0 | 2.6 | 0.00 | 0.03 | 0.00 | 58 | 1006.4 |
| 20260506094003 | 64 | 352 | 0.0 | 5.2 | 0.00 | 0.03 | 0.00 | 58 | 1006.4 |
| 20260506093502 | 64 | 42 | 0.9 | 4.3 | 0.00 | 0.03 | 0.00 | 57 | 1006.4 |
| 20260506093018 | 64 | 336 | 0.0 | 5.2 | 0.00 | 0.03 | 0.00 | 57 | 1006.5 |
| 20260506092503 | 64 | 85 | 0.9 | 6.1 | 0.00 | 0.03 | 0.00 | 58 | 1006.5 |
| 20260506092003 | 64 | 60 | 0.9 | 6.1 | 0.00 | 0.03 | 0.00 | 56 | 1006.6 |
| 20260506091504 | 65 | 71 | 0.9 | 2.6 | 0.00 | 0.03 | 0.00 | 56 | 1006.5 |
| 20260506091003 | 64 | 114 | 0.9 | 3.5 | 0.00 | 0.03 | 0.00 | 57 | 1006.5 |
| 20260506090502 | 64 | 74 | 1.7 | 4.3 | 0.00 | 0.03 | 0.00 | 55 | 1006.5 |
| 20260506090007 | 64 | 352 | 0.9 | 4.3 | 0.00 | 0.03 | 0.00 | 57 | 1006.4 |
| 20260506085503 | 64 | 67 | 0.0 | 5.2 | 0.00 | 0.03 | 0.00 | 55 | 1006.5 |
| 20260506085003 | 64 | 132 | 0.9 | 5.2 | 0.00 | 0.03 | 0.00 | 56 | 1006.5 |
| 20260506084509 | 63 | 28 | 0.0 | 4.3 | 0.00 | 0.03 | 0.00 | 59 | 1006.5 |
| 20260506084002 | 62 | 44 | 0.0 | 4.3 | 0.00 | 0.03 | 0.00 | 60 | 1006.6 |
| 20260506083503 | 61 | 180 | 0.0 | 7.0 | 0.00 | 0.03 | 0.00 | 60 | 1006.7 |
| 20260506083017 | 62 | 45 | 1.7 | 7.0 | 0.00 | 0.03 | 0.00 | 62 | 1006.7 |
| 20260506082506 | 63 | 53 | 0.9 | 3.5 | 0.00 | 0.03 | 0.00 | 58 | 1006.8 |
| 20260506082006 | 62 | 336 | 0.9 | 3.5 | 0.00 | 0.03 | 0.00 | 62 | 1006.7 |
| 20260506081503 | 62 | 132 | 0.9 | 4.3 | 0.00 | 0.03 | 0.00 | 60 | 1006.8 |
| 20260506081008 | 62 | 12 | 0.9 | 4.3 | 0.00 | 0.03 | 0.00 | 59 | 1006.9 |
| 20260506080504 | 62 | 25 | 0.9 | 3.5 | 0.00 | 0.03 | 0.00 | 60 | 1007.0 |
| 20260506073504 | 60 | 122 | 0.0 | 2.6 | 0.00 | 0.03 | 0.00 | 65 | 1007.0 |
| 20260506073016 | 60 | 61 | 0.0 | 2.6 | 0.00 | 0.03 | 0.00 | 67 | 1007.1 |
| 20260506072505 | 60 | 49 | 1.7 | 3.5 | 0.00 | 0.03 | 0.00 | 66 | 1007.2 |
| 20260506072010 | 59 | 165 | 0.0 | 3.5 | 0.00 | 0.03 | 0.00 | 68 | 1007.3 |
| 20260506071521 | 59 | 150 | 0.0 | 1.7 | 0.00 | 0.03 | 0.00 | 68 | 1007.4 |
| 20260506070503 | 58 | 53 | 0.0 | 1.7 | 0.00 | 0.03 | 0.00 | 68 | 1007.4 |